Regional Weather Roundup
Issued by NWS Cleveland, OH

Home | Current Version | Previous Version | Text Only | Print | Product List | Glossary Off
Versions: 1 2 3 4 5 6 7 8 9 10 11 12 13 14 15 16 17 18 19 20 21 22 23 24 25 26 27 28 29 30 31 32 33 34 35 36 37 38 39 40 41 42 43 44 45 46 47 48 49 50

000
ASUS41 KCLE 281302
RWRCLE
OHIO REGIONAL WEATHER ROUNDUP
NATIONAL WEATHER SERVICE CLEVELAND, OH
900 AM EDT THU AUG 28 2014

NOTE: "FAIR" INDICATES FEW OR NO CLOUDS BELOW 12,000 FEET WITH NO
SIGNIFICANT WEATHER AND/OR OBSTRUCTIONS TO VISIBILITY.

OHZ001>008-015>018-024>027-034-035-043-044-281400-
   NORTHWEST OHIO

CITY           SKY/WX    TMP DP  RH WIND       PRES   REMARKS
DEFIANCE       CLOUDY    63  58  83 NE6       30.16R
FINDLAY        CLOUDY    69  61  75 NE6       30.14R
TOLEDO EXPRESS MOSUNNY   66  57  72 NE6       30.15S
TOLEDO EXEC    MOSUNNY   68  56  65 NE8       30.16S
LIMA           MOSUNNY   66  63  90 E6        30.15R FOG
$$

OHZ009>014-019>023-028>033-038-089-281400-
   NORTHEAST OHIO

CITY           SKY/WX    TMP DP  RH WIND       PRES   REMARKS
CLE-HOPKINS    PTSUNNY   65  55  70 N6        30.17R
CLE-LAKEFRONT  PTSUNNY   66  55  67 N8        30.14S
CUY CO. ARPT   PTSUNNY   61  57  88 NE8       30.16R
LORAIN-ELYRIA  MOSUNNY   69  57  65 NE6       30.16R
ASHTABULA      MOSUNNY   62  54  74 VRB7      30.15R
AKRON-CANTON   MOSUNNY   64  54  69 NE9       30.15S
WOOSTER        SUNNY     63  56  78 NE8       30.16R
MANSFIELD      MOSUNNY   63  59  87 NE7       30.16R
YOUNGSTOWN     MOSUNNY   61  52  72 N9        30.15R
$$

OHZ042-051>053-060>062-070>072-077>081-281400-
  SOUTHWEST OHIO

CITY           SKY/WX    TMP DP  RH WIND       PRES   REMARKS
CINC-COVINGTON MOSUNNY   72  64  76 E9        30.10R
CINC-LUNKEN    MOSUNNY   71  64  78 NE8       30.11R
HAMILTON       MOSUNNY   71  64  78 NE6       30.12R
DAYTON         MOSUNNY   68  63  84 E7        30.14S
WRIGHT-PAT AFB SUNNY     69  62  80 VRB6      30.13R
DAYTON GENERAL MOSUNNY   67  62  84 E9        30.12R
WILMINGTON     SUNNY     66  61  84 E6        30.12R
$$

OHZ036-037-039>041-045>050-054>059-063>069-073>076-082>088-281400-
  CENTRAL AND SOUTHEAST OHIO

CITY           SKY/WX    TMP DP  RH WIND       PRES   REMARKS
COLUMBUS       MOSUNNY   69  59  70 E6        30.13R
OSU AIRPORT    SUNNY     67  60  78 E6        30.13S
BOLTON FIELD   SUNNY     66  61  82 E3        30.14R
RICKENBACK AFB SUNNY     68  57  67 E9        30.13S
NEWARK         SUNNY     67  59  75 NE5       30.13R
MARION         SUNNY     66  60  81 E7        30.14S
LANCASTER      SUNNY     67  59  75 E5        30.13S
ZANESVILLE     SUNNY     65  57  75 NE6       30.14R
NEW PHILLY     SUNNY     63  56  78 NE7       30.14R
$$


USA.gov is the U.S. government's official web portal to all federal, state and local government web resources and services.